Simultaneous Nadir Overpasses (SNOs) Predictions

Prediction of SNOs between METOP-B and TERRA Satellite Orbit:

Table of predicted SNOs for the next 14.0 days since TLE Epoch: 4/16/2014
Index Date (METOP-B) Time (METOP-B) Lat,Lon (METOP-B) SZA (METOP-B ) Date (TERRA) Time (TERRA) Lat,Lon (TERRA) SZA (TERRA ) Distance(km) Time Diff (sec)
1 04/16/2014 15:50:48 81.32, -10.06 73.96 04/16/2014 15:51:01 81.32, -10.16 73.95 1.58 13
2 04/16/2014 16:41:28 -81.33, 157.83 105.99 04/16/2014 16:40:27 -81.33, 157.73 106.03 1.78 61
3 04/19/2014 11:25:07 81.32, 56.39 73.00 04/19/2014 11:25:12 81.33, 56.48 73.02 1.64 5
4 04/19/2014 12:15:48 -81.32,-136.08 106.99 04/19/2014 12:14:39 -81.32,-135.99 107.02 1.43 69
5 04/22/2014 06:08:48 -81.31, -44.91 107.98 04/22/2014 06:09:58 -81.32, -44.89 107.94 0.35 70
6 04/22/2014 06:59:27 81.32, 122.79 72.06 04/22/2014 06:59:24 81.32, 122.83 72.07 0.63 3
7 04/25/2014 01:43:08 -81.31, 21.47 108.89 04/25/2014 01:44:09 -81.32, 21.59 108.85 2.17 61
8 04/25/2014 02:33:47 81.32,-170.85 71.14 04/25/2014 02:33:35 81.32,-170.72 71.15 2.26 12
9 04/27/2014 21:17:26 -81.32, 88.18 109.74 04/27/2014 21:18:18 -81.32, 88.17 109.72 0.67 52




NCC Satellite Simultaneous Nadir Overpasses (SNOs) Prediction Service
